Weather History for Gulf Shores, AL

Change the Weather History Date:

Friday, June 28, 2013

  Actual Average (KPNS) Record (KPNS)
Temperature  
Mean Temperature 86 °F 82 °F  
Max Temperature 91 °F 90 °F 101 °F (1954)
Min Temperature 80 °F 74 °F 61 °F (1974)
Cooling Degree Days 20 17  
Month to date cooling degree days 431  
Year to date cooling degree days 879  
Since 1 June cooling degree days 431  
Growing Degree Days 36 (Base 50)    
Moisture  
Dew Point 74 °F    
Average Humidity 69    
Maximum Humidity 84    
Minimum Humidity 49    
Precipitation  
Precipitation 0.00 in 0.25 in 4.30 in (1923)
Month to date precipitation 6.11  
Year to date precipitation 30.11  
Sea Level Pressure  
Sea Level Pressure 29.87 in    
Wind  
Wind Speed 9 mph (WSW)    
Max Wind Speed 14 mph    
Max Gust Speed 18 mph    
Visibility 10 miles    
Events Thunderstorm    
T = Trace of Precipitation, MM = Missing Value Source: NWS Daily Summary

Daily Weather History Graph

Daily Weather History Graph

Search for Another Location

Airport:

Trip Planner

Search our weather history database for the weather conditions in past years. The results will help you decide how hot, cold, wet, or windy it might be!

Date:

Astronomy

Jun. 28, 2013 Rise Set
Actual Time 5:51 AM CDT 7:56 PM CDT
Civil Twilight 5:23 AM CDT 8:24 PM CDT
Nautical Twilight 4:50 AM CDT 8:57 PM CDT
Astronomical Twilight 4:14 AM CDT 9:33 PM CDT
Moon 11:54 PM CDT (6/28) 11:32 AM CDT (6/28)
Length of Visible Light 15h 00m
Length of Day
14h 05m
Waning Gibbous, 66% of the Moon is Illuminated
Jun 28
Waning Gibbous
Jun 29
Last Quarter
Jul 8
New
Jul 15
First Quarter
Jul 22
Full

Hourly Weather History & Observations

Time (CDT) Temp. Heat Index Dew Point Humidity Pressure Visibility Wind Dir Wind Speed Gust Speed Precip Events Conditions
12:15 AM 80.6 °F 85.4 °F 73.4 °F 79% 29.94 in 10.0 mi SW 3.5 mph - N/A   Clear
12:35 AM 82.4 °F 89.5 °F 75.2 °F 79% 29.93 in 10.0 mi WSW 5.8 mph - N/A   Clear
12:55 AM 82.4 °F 89.5 °F 75.2 °F 79% 29.93 in 10.0 mi WSW 5.8 mph - N/A   Clear
1:35 AM 80.6 °F 86.2 °F 75.2 °F 84% 29.94 in 10.0 mi WSW 4.6 mph - N/A   Clear
1:55 AM 82.4 °F 89.5 °F 75.2 °F 79% 29.93 in 10.0 mi SW 6.9 mph - N/A   Clear
2:15 AM 82.4 °F 89.5 °F 75.2 °F 79% 29.92 in 10.0 mi SW 8.1 mph - N/A   Scattered Clouds
2:35 AM 82.4 °F 89.5 °F 75.2 °F 79% 29.91 in 10.0 mi WSW 9.2 mph - N/A   Scattered Clouds
2:55 AM 82.4 °F 90.9 °F 77.0 °F 84% 29.90 in 10.0 mi SW 10.4 mph - N/A   Clear
3:15 AM 82.4 °F 90.9 °F 77.0 °F 84% 29.89 in 10.0 mi WSW 9.2 mph - N/A   Clear
3:35 AM 82.4 °F 90.9 °F 77.0 °F 84% 29.89 in 10.0 mi WSW 10.4 mph - N/A   Clear
3:55 AM 82.4 °F 90.9 °F 77.0 °F 84% 29.89 in 10.0 mi WSW 10.4 mph - N/A   Clear
4:15 AM 82.4 °F 90.9 °F 77.0 °F 84% 29.89 in 10.0 mi WSW 11.5 mph - N/A   Scattered Clouds
4:35 AM 82.4 °F 90.9 °F 77.0 °F 84% 29.89 in 10.0 mi WSW 6.9 mph - N/A   Mostly Cloudy
4:55 AM 82.4 °F 90.9 °F 77.0 °F 84% 29.90 in 10.0 mi WSW 11.5 mph - N/A   Scattered Clouds
5:15 AM 82.4 °F 90.9 °F 77.0 °F 84% 29.90 in 10.0 mi WSW 11.5 mph 16.1 mph N/A   Scattered Clouds
5:35 AM 82.4 °F 90.9 °F 77.0 °F 84% 29.92 in 10.0 mi West 13.8 mph 17.3 mph N/A   Mostly Cloudy
5:55 AM 82.4 °F 90.9 °F 77.0 °F 84% 29.91 in 10.0 mi West 11.5 mph - N/A   Scattered Clouds
6:15 AM 82.4 °F 90.9 °F 77.0 °F 84% 29.91 in 10.0 mi WSW 10.4 mph - N/A   Mostly Cloudy
6:35 AM 82.4 °F 90.9 °F 77.0 °F 84% 29.91 in 10.0 mi West 8.1 mph - N/A   Overcast
6:55 AM 82.4 °F 90.9 °F 77.0 °F 84% 29.92 in 10.0 mi West 10.4 mph - N/A   Overcast
7:55 AM 86.0 °F 96.9 °F 77.0 °F 74% 29.93 in 10.0 mi West 11.5 mph - N/A   Mostly Cloudy
8:15 AM 86.0 °F 95.1 °F 75.2 °F 70% 29.93 in 10.0 mi West 9.2 mph 16.1 mph N/A   Mostly Cloudy
8:35 AM 87.8 °F 95.6 °F 73.4 °F 62% 29.93 in 10.0 mi West 11.5 mph - N/A   Scattered Clouds
8:55 AM 87.8 °F 95.6 °F 73.4 °F 62% 29.92 in 10.0 mi West 11.5 mph - N/A Thunderstorm Scattered Clouds
9:15 AM 87.8 °F 95.6 °F 73.4 °F 62% 29.92 in 10.0 mi WNW 11.5 mph - N/A   Clear
9:35 AM 87.8 °F 95.6 °F 73.4 °F 62% 29.92 in 10.0 mi West 12.7 mph 17.3 mph N/A   Scattered Clouds
9:55 AM 87.8 °F 95.6 °F 73.4 °F 62% 29.92 in 10.0 mi West 12.7 mph - N/A   Scattered Clouds
10:15 AM 89.6 °F 96.2 °F 71.6 °F 55% 29.92 in 10.0 mi West 8.1 mph - N/A   Scattered Clouds
10:35 AM 89.6 °F 96.2 °F 71.6 °F 55% 29.92 in 10.0 mi West 12.7 mph 17.3 mph N/A   Clear
10:55 AM 89.6 °F 96.2 °F 71.6 °F 55% 29.92 in 10.0 mi West 10.4 mph - N/A   Clear
11:15 AM 89.6 °F 94.7 °F 69.8 °F 52% 29.92 in 10.0 mi West 11.5 mph - N/A   Clear
11:35 AM 89.6 °F 96.2 °F 71.6 °F 55% 29.92 in 10.0 mi WSW 11.5 mph - N/A   Scattered Clouds
11:55 AM 89.6 °F 94.7 °F 69.8 °F 52% 29.91 in 10.0 mi West 10.4 mph - N/A   Scattered Clouds
12:15 PM 89.6 °F 94.7 °F 69.8 °F 52% 29.90 in 10.0 mi West 11.5 mph 16.1 mph N/A   Clear
12:35 PM 91.4 °F 96.8 °F 69.8 °F 49% 29.89 in 10.0 mi West 9.2 mph - N/A   Scattered Clouds
12:55 PM 91.4 °F 98.4 °F 71.6 °F 52% 29.88 in 10.0 mi West 8.1 mph - N/A   Scattered Clouds
1:15 PM 91.4 °F 98.4 °F 71.6 °F 52% 29.87 in 10.0 mi SW 12.7 mph - N/A   Clear
1:35 PM 91.4 °F 98.4 °F 71.6 °F 52% 29.87 in 10.0 mi WSW 12.7 mph - N/A   Clear
1:55 PM 89.6 °F 98.2 °F 73.4 °F 59% 29.85 in 10.0 mi SSW 12.7 mph 16.1 mph N/A   Scattered Clouds
2:15 PM 89.6 °F 98.2 °F 73.4 °F 59% 29.85 in 10.0 mi SSW 13.8 mph - N/A   Mostly Cloudy
2:35 PM 89.6 °F 98.2 °F 73.4 °F 59% 29.84 in 10.0 mi SW 11.5 mph - N/A   Scattered Clouds
2:55 PM 89.6 °F 98.2 °F 73.4 °F 59% 29.84 in 10.0 mi WSW 13.8 mph - N/A   Scattered Clouds
3:15 PM 89.6 °F 98.2 °F 73.4 °F 59% 29.82 in 10.0 mi WSW 11.5 mph - N/A   Scattered Clouds
3:35 PM 89.6 °F 98.2 °F 73.4 °F 59% 29.82 in 10.0 mi SW 12.7 mph 17.3 mph N/A   Mostly Cloudy
3:55 PM 89.6 °F 98.2 °F 73.4 °F 59% 29.81 in 10.0 mi West 12.7 mph 17.3 mph N/A   Mostly Cloudy
4:15 PM 89.6 °F 98.2 °F 73.4 °F 59% 29.82 in 10.0 mi WSW 13.8 mph - N/A   Clear
4:35 PM 89.6 °F 96.2 °F 71.6 °F 55% 29.81 in 10.0 mi WSW 10.4 mph - N/A   Clear
4:55 PM 89.6 °F 96.2 °F 71.6 °F 55% 29.80 in 10.0 mi WSW 13.8 mph - N/A   Clear
5:15 PM 89.6 °F 96.2 °F 71.6 °F 55% 29.81 in 10.0 mi West 12.7 mph - N/A   Clear
5:35 PM 87.8 °F 93.8 °F 71.6 °F 58% 29.80 in 10.0 mi WSW 12.7 mph - N/A   Clear
5:55 PM 89.6 °F 96.2 °F 71.6 °F 55% 29.81 in 10.0 mi West 10.4 mph - N/A   Clear
6:15 PM 87.8 °F 95.6 °F 73.4 °F 62% 29.81 in 10.0 mi West 11.5 mph - N/A   Clear
6:35 PM 87.8 °F 95.6 °F 73.4 °F 62% 29.81 in 10.0 mi SW 11.5 mph - N/A   Clear
6:55 PM 87.8 °F 95.6 °F 73.4 °F 62% 29.81 in 10.0 mi North - - N/A   Clear
7:15 PM 86.0 °F 93.4 °F 73.4 °F 66% 29.80 in 10.0 mi North - - N/A   Clear
7:35 PM 86.0 °F 93.4 °F 73.4 °F 66% 29.79 in 10.0 mi North - - N/A   Clear
7:55 PM 86.0 °F 93.4 °F 73.4 °F 66% 29.78 in 10.0 mi SW 10.4 mph - N/A   Clear
8:15 PM 86.0 °F 93.4 °F 73.4 °F 66% 29.79 in 10.0 mi SW 10.4 mph - N/A   Clear
8:35 PM 86.0 °F 96.9 °F 77.0 °F 74% 29.79 in 10.0 mi SSW 11.5 mph - N/A   Clear
8:55 PM 84.2 °F 94.1 °F 77.0 °F 79% 29.79 in 10.0 mi SW 12.7 mph 18.4 mph N/A   Clear
9:15 PM 84.2 °F 94.1 °F 77.0 °F 79% 29.80 in 10.0 mi SW 11.5 mph 16.1 mph N/A   Clear
9:35 PM 84.2 °F 92.3 °F 75.2 °F 74% 29.81 in 10.0 mi SW 10.4 mph - N/A   Clear
9:55 PM 84.2 °F 92.3 °F 75.2 °F 74% 29.81 in 10.0 mi SW 13.8 mph 17.3 mph N/A   Clear
10:15 PM 84.2 °F 92.3 °F 75.2 °F 74% 29.82 in 10.0 mi WSW 9.2 mph - N/A   Clear
10:35 PM 84.2 °F 94.1 °F 77.0 °F 79% 29.81 in 10.0 mi SW 10.4 mph - N/A   Clear
10:55 PM 84.2 °F 94.1 °F 77.0 °F 79% 29.80 in 10.0 mi WSW 9.2 mph - N/A   Clear
11:15 PM 84.2 °F 94.1 °F 77.0 °F 79% 29.80 in 10.0 mi SW 11.5 mph - N/A   Clear
11:35 PM 84.2 °F 94.1 °F 77.0 °F 79% 29.80 in 10.0 mi WSW 10.4 mph - N/A   Clear
11:55 PM 84.2 °F 94.1 °F 77.0 °F 79% 29.80 in 10.0 mi WSW 9.2 mph - N/A   Clear